Weather History for Jefferson, NC

Change the Weather History Date:

Tuesday, March 29, 2011

  Actual Average Record
Temperature  
Mean Temperature 40 °F -  
Max Temperature 51 °F 59 °F 76 °F (1985)
Min Temperature 28 °F 36 °F 14 °F (1982)
Degree Days  
Heating Degree Days 26    
Moisture  
Dew Point 31 °F    
Average Humidity 72    
Maximum Humidity 100    
Minimum Humidity 50    
Precipitation  
Precipitation 0.00 in - - ()
Sea Level Pressure  
Sea Level Pressure 30.09 in    
Wind  
Wind Speed 3 mph (SSE)    
Max Wind Speed 9 mph    
Max Gust Speed -    
Visibility 9 miles    
Events      
Averages and records for this station are not official NWS values.
T = Trace of Precipitation, MM = Missing Value Source: NWS Daily Summary

Daily Weather History Graph

Daily Weather History Graph

Search for Another Location

Airport:

Trip Planner

Search our weather history database for the weather conditions in past years. The results will help you decide how hot, cold, wet, or windy it might be!

Date:

Astronomy

Mar. 29, 2011 Rise Set
Actual Time 7:16 AM EDT 7:45 PM EDT
Civil Twilight 6:50 AM EDT 8:10 PM EDT
Nautical Twilight 6:20 AM EDT 8:41 PM EDT
Astronomical Twilight 5:49 AM EDT 9:12 PM EDT
Moon 4:32 AM EDT (3/29) 3:31 PM EDT (3/29)
Length of Visible Light 13h 20m
Length of Day
12h 28m
Waning Crescent, 21% of the Moon is Illuminated
Mar 29
Waning Crescent
Apr 3
New
Apr 11
First Quarter
Apr 17
Full
Apr 24
Last Quarter

Hourly Weather History & Observations

Time (EDT) Temp. Windchill Dew Point Humidity Pressure Visibility Wind Dir Wind Speed Gust Speed Precip Events Conditions
12:02 AM 33.8 °F 30.8 °F 28.4 °F 81% 30.07 in 10.0 mi West 3.5 mph - N/A   Clear
12:22 AM 32.0 °F 28.7 °F 26.6 °F 80% 30.08 in 10.0 mi West 3.5 mph - N/A   Clear
12:42 AM 32.0 °F 27.5 °F 28.4 °F 87% 30.08 in 10.0 mi WSW 4.6 mph - N/A   Clear
1:02 AM 30.2 °F 26.7 °F 28.4 °F 93% 30.08 in 7.0 mi WSW 3.5 mph - N/A   Clear
1:22 AM 32.0 °F 28.7 °F 28.4 °F 87% 30.08 in 10.0 mi WSW 3.5 mph - N/A   Clear
1:42 AM 32.0 °F - 28.4 °F 87% 30.07 in 10.0 mi Calm Calm - N/A   Clear
2:22 AM 32.0 °F 28.7 °F 28.4 °F 87% 30.06 in 10.0 mi NW 3.5 mph - N/A   Clear
2:42 AM 32.0 °F - 28.4 °F 87% 30.06 in 10.0 mi Calm Calm - N/A   Clear
3:03 AM 30.2 °F 25.4 °F 28.4 °F 93% 30.05 in 10.0 mi NNW 4.6 mph - N/A   Clear
3:22 AM 32.0 °F 24.8 °F 28.4 °F 87% 30.04 in 10.0 mi NNW 8.1 mph - N/A   Clear
4:02 AM 32.0 °F 27.5 °F 28.4 °F 87% 30.04 in 10.0 mi NW 4.6 mph - N/A   Clear
4:23 AM 30.2 °F - 26.6 °F 86% 30.04 in 10.0 mi Calm Calm - N/A   Clear
4:42 AM 28.4 °F - 26.6 °F 93% 30.04 in 5.0 mi Calm Calm - N/A   Clear
5:02 AM 30.2 °F 26.7 °F 28.4 °F 93% 30.04 in 10.0 mi NNW 3.5 mph - N/A   Clear
5:22 AM 28.4 °F - 26.6 °F 93% 30.05 in 7.0 mi Calm Calm - N/A   Clear
5:42 AM 28.4 °F - 26.6 °F 93% 30.07 in 7.0 mi Calm Calm - N/A   Clear
6:02 AM 28.4 °F - 28.4 °F 100% 30.07 in 7.0 mi Calm Calm - N/A   Clear
6:22 AM 30.2 °F - 28.4 °F 93% 30.08 in 10.0 mi Calm Calm - N/A   Scattered Clouds
6:43 AM 30.2 °F - 28.4 °F 93% 30.08 in 10.0 mi Calm Calm - N/A   Overcast
7:02 AM 30.2 °F - 28.4 °F 93% 30.09 in 7.0 mi Calm Calm - N/A   Overcast
7:22 AM 30.2 °F - 28.4 °F 93% 30.10 in 10.0 mi Calm Calm - N/A   Overcast
7:42 AM 32.0 °F - 28.4 °F 87% 30.11 in 10.0 mi Calm Calm - N/A   Overcast
8:02 AM 30.2 °F - 28.4 °F 93% 30.12 in 5.0 mi Calm Calm - N/A   Overcast
8:22 AM 30.2 °F - 28.4 °F 93% 30.12 in 7.0 mi Calm Calm - N/A   Overcast
8:42 AM 30.2 °F - 28.4 °F 93% 30.12 in 5.0 mi Calm Calm - N/A   Overcast
9:02 AM 32.0 °F - 30.2 °F 93% 30.13 in 10.0 mi Calm Calm - N/A   Mostly Cloudy
9:22 AM 33.8 °F - 28.4 °F 81% 30.13 in 10.0 mi Calm Calm - N/A   Scattered Clouds
9:42 AM 35.6 °F - 30.2 °F 81% 30.13 in 10.0 mi Calm Calm - N/A   Scattered Clouds
10:02 AM 37.4 °F - 30.2 °F 75% 30.14 in 10.0 mi Calm Calm - N/A   Scattered Clouds
10:22 AM 39.2 °F - 32.0 °F 75% 30.14 in 10.0 mi Calm Calm - N/A   Clear
11:03 AM 41.0 °F 37.1 °F 32.0 °F 70% 30.15 in 10.0 mi South 5.8 mph - N/A   Clear
11:22 AM 42.8 °F 41.1 °F 32.0 °F 66% 30.15 in 10.0 mi SSE 3.5 mph - N/A   Clear
11:44 AM 44.6 °F 42.2 °F 32.0 °F 61% 30.15 in 10.0 mi SE 4.6 mph - N/A   Clear
12:02 PM 44.6 °F 42.2 °F 30.2 °F 57% 30.15 in 10.0 mi SE 4.6 mph - N/A   Clear
12:42 PM 46.4 °F 43.5 °F 30.2 °F 53% 30.14 in 10.0 mi SSE 5.8 mph - N/A   Clear
1:02 PM 48.2 °F - 32.0 °F 54% 30.14 in 10.0 mi SE 5.8 mph - N/A   Clear
1:22 PM 46.4 °F 43.5 °F 32.0 °F 57% 30.13 in 10.0 mi ESE 5.8 mph - N/A   Clear
1:42 PM 48.2 °F - 32.0 °F 54% 30.12 in 10.0 mi SE 6.9 mph - N/A   Clear
2:03 PM 48.2 °F - 32.0 °F 54% 30.11 in 10.0 mi ESE 5.8 mph - N/A   Clear
2:22 PM 50.0 °F - 32.0 °F 50% 30.11 in 10.0 mi ESE 4.6 mph - N/A   Clear
2:42 PM 50.0 °F - 32.0 °F 50% 30.10 in 10.0 mi ESE 6.9 mph - N/A   Clear
3:02 PM 50.0 °F - 32.0 °F 50% 30.09 in 10.0 mi ESE 9.2 mph - N/A   Clear
3:22 PM 50.0 °F - 32.0 °F 50% 30.09 in 10.0 mi SSE 4.6 mph - N/A   Clear
3:43 PM 51.8 °F - 33.8 °F 50% 30.08 in 10.0 mi SE 5.8 mph - N/A   Clear
4:02 PM 51.8 °F - 33.8 °F 50% 30.07 in 10.0 mi SE 5.8 mph - N/A   Clear
4:22 PM 51.8 °F - 33.8 °F 50% 30.07 in 10.0 mi SE 5.8 mph - N/A   Clear
4:42 PM 51.8 °F - 33.8 °F 50% 30.07 in 10.0 mi SE 6.9 mph - N/A   Clear
5:02 PM 51.8 °F - 33.8 °F 50% 30.08 in 10.0 mi SE 3.5 mph - N/A   Clear
5:22 PM 51.8 °F - 33.8 °F 50% 30.08 in 10.0 mi SSE 4.6 mph - N/A   Clear
5:42 PM 51.8 °F - 33.8 °F 50% 30.08 in 10.0 mi SE 5.8 mph - N/A   Clear
6:03 PM 50.0 °F - 33.8 °F 54% 30.08 in 10.0 mi SSE 4.6 mph - N/A   Clear
6:22 PM 50.0 °F - 33.8 °F 54% 30.08 in 10.0 mi SE 6.9 mph - N/A   Clear
6:42 PM 50.0 °F - 33.8 °F 54% 30.07 in 10.0 mi SE 3.5 mph - N/A   Clear
7:02 PM 48.2 °F - 33.8 °F 58% 30.07 in 10.0 mi SSE 5.8 mph - N/A   Clear
7:22 PM 46.4 °F 43.5 °F 32.0 °F 57% 30.07 in 10.0 mi SSE 5.8 mph - N/A   Clear
7:42 PM 46.4 °F 44.3 °F 33.8 °F 62% 30.07 in 10.0 mi SSE 4.6 mph - N/A   Clear
8:02 PM 44.6 °F 43.1 °F 33.8 °F 66% 30.08 in 10.0 mi SSE 3.5 mph - N/A   Clear
8:22 PM 44.6 °F 43.1 °F 33.8 °F 66% 30.08 in 10.0 mi SSE 3.5 mph - N/A   Clear
8:42 PM 42.8 °F 41.1 °F 33.8 °F 70% 30.08 in 10.0 mi SSE 3.5 mph - N/A   Clear
9:02 PM 42.8 °F 41.1 °F 32.0 °F 66% 30.08 in 10.0 mi SE 3.5 mph - N/A   Scattered Clouds
9:22 PM 42.8 °F - 32.0 °F 66% 30.09 in 10.0 mi Calm Calm - N/A   Scattered Clouds
9:42 PM 42.8 °F - 32.0 °F 66% 30.09 in 10.0 mi Calm Calm - N/A   Scattered Clouds
10:02 PM 42.8 °F - 32.0 °F 66% 30.09 in 10.0 mi Calm Calm - N/A   Scattered Clouds